Regional Weather Roundup
Issued by NWS

Home | Current Version | Previous Version | Text Only | Print | Product List | Glossary On
Versions: 1 2 3 4 5 6 7 8 9 10 11 12 13 14 15 16 17 18 19 20 21 22 23 24 25 26 27 28 29 30 31 32 33 34 35 36 37 38 39 40 41 42 43 44 45 46 47 48 49 50
000
ASUS46 KSTO 270115
RWRCA

NORTHERN AND CENTRAL CA REGIONAL WEATHER ROUNDUP
NATIONAL WEATHER SERVICE SACRAMENTO CA
600 PM PDT MON JUN 26 2017

NOTE: FAIR INDICATES FEW OR NO CLOUDS BELOW 12,000 FEET WITH NO
SIGNIFICANT WEATHER AND/OR OBSTRUCTIONS TO VISIBILITY.

CAZ001-003-270200-
NORTHWEST AREA

CITY           SKY/WX    TMP DP  RH WIND       PRES   REMARKS
CRESCENT CITY  CLOUDY    60  54  80 NW3       30.07S
UKIAH          SUNNY     79  55  43 N14       29.95F
$$

CAZ006-505>513-270200-
BAY AREA

CITY           SKY/WX    TMP DP  RH WIND       PRES   REMARKS
SANTA ROSA     SUNNY     72  54  53 S8        29.95F
SAN RAFAEL     N/A       71  MM  MM MISG
NAPA           SUNNY     76  54  46 W17       29.95F
CONCORD        SUNNY     78  55  44 W15       29.95F
OAKLAND CITY   N/A      MM  MM  MM MISG
OAKLAND        MOSUNNY   71  57  61 W21       29.99F
SAN FRAN CITY  N/A       65  MM  67 MISG
SAN FRAN ARPT  MOSUNNY   68  54  60 W20G26    29.99F
LIVERMORE      SUNNY     72  54  53 W21       29.95F
HAYWARD        SUNNY     70  53  54 W20       29.99F
REDWOOD CITY   N/A       72  MM  56 MISG
MOFFETT ARPT   SUNNY     72  59  63 N17       29.98F
SAN JOSE ARPT  MOSUNNY   72  57  59 NW17      29.98F
$$
CAZ034-037-514>518-270200-
CENTRAL COAST

CITY           SKY/WX    TMP DP  RH WIND       PRES   REMARKS
WATSONVILLE    SUNNY     70  58  65 E8        29.97F
SALINAS        SUNNY     71  55  56 W14       29.99F
MONTEREY       SUNNY     69  55  60 W9        30.01F
SAN LUIS OBISP SUNNY     73  53  49 NW16      29.96F
SANTA MARIA    SUNNY     69  55  60 NW15      29.97F
$$
CAZ015-016-270200-
NORTHERN SACRAMENTO VALLEY

CITY           SKY/WX    TMP DP  RH WIND       PRES   REMARKS
REDDING        SUNNY     91  50  24 SE13      29.86F
RED BLUFF      SUNNY     89  54  30 S15       29.87F
OROVILLE       SUNNY     90  52  27 S12       29.89F
$$
CAZ016>018-270200-
SOUTHERN SACRAMENTO VALLEY

CITY           SKY/WX    TMP DP  RH WIND       PRES   REMARKS
AUBURN         SUNNY     82  52  34 S7        29.97F
BEALE AFB      SUNNY     88  54  30 S14       29.87F
LINCOLN        FAIR      88  43  20 S9        29.89F
MARYSVILLE     SUNNY     87  49  26 S15       29.88F
SAC INTL ARPT  SUNNY     84  50  30 S21       29.88F
MATHER AIRPORT NOT AVBL
DOWNTOWN SAC   N/A       82  MM  MM MISG
SAC EXEC ARPT  SUNNY     80  53  39 SW15G24   29.90F
VACAVILLE      SUNNY     83  53  35 SW13      29.90F
TRAVIS AFB     SUNNY     77  53  42 SW23      29.89F
$$
CAZ019>021-270200-
SAN JOAQUIN VALLEY

CITY           SKY/WX    TMP DP  RH WIND       PRES   REMARKS
STOCKTON       SUNNY     86  59  39 NW12      29.90F
MODESTO        SUNNY     89  58  34 NW12      29.88F
MERCED         SUNNY     93  55  27 NW10      29.87F HX  91
LEMOORE        MOSUNNY   95  50  21 N6        29.86F HX  92
FRESNO         MOSUNNY   97  42  15 VRB7      29.87F HX  93
HANFORD        SUNNY     96  55  25 N3        29.86F HX  94
PORTERVILLE      N/A     99  53  21 NW8       29.87F HX  96
BAKERSFIELD    SUNNY    103  38  10 NW15      29.85F HX  97
$$
CAZ011-012-071-270200-
NORTHERN MOUNTAINS

CITY           SKY/WX    TMP DP  RH WIND       PRES   REMARKS
YREKA          PTSUNNY   88  40  18 S18       29.90F
MOUNT SHASTA   MOSUNNY   78  43  28 VRB3      30.00F
ALTURAS        SUNNY     83  33  16 W21G29    30.02F
$$
CAZ011-012-071-270200-
SIERRA NEVADA MTNS

CITY           SKY/WX    TMP DP  RH WIND       PRES   REMARKS
BLUE CANYON    SUNNY     71  37  28 SW8       30.19F
TRUCKEE        SUNNY     75  27  16 W9G16     30.19F
TAHOE VLY ARPT SUNNY     72  27  18 SW12G23   30.20F
MAMMOTH LAKES  FAIR      75  32  20 W16G28    30.25F
$$




USA.gov is the U.S. government's official web portal to all federal, state and local government web resources and services.